TIANWANG 1B (TW-1B)
1 40927U 15051C   19182.48881086  .00007218  00000-0  11184-3 0  9994
2 40927  97.1380 227.9908 0007298 351.2708 115.9885 15.54299050212003
TIANWANG 1A (TW-1A)
1 40928U 15051D   19182.48516782  .00002096  00000-0  53025-4 0  9993
2 40928  97.1447 213.5071 0012184  35.4560  70.4932 15.40813436211144
LAPAN A2
1 40931U 15052B   19179.75066188  .00000651  00000-0  15188-5 0  9998
2 40931   6.0069 344.9206 0014241 295.9110  63.9836 14.76609491202755
LQSAT
1 40958U 15057A   19181.79050663 -.00000013  00000-0  56715-5 0  9994
2 40958  97.8981 250.6605 0017707 198.2581 161.7994 14.73082387200585
CHUBUSAT 2
1 41338U 16012B   19181.93461201 +.00000204 +00000-0 +91089-5 0  9993
2 41338 031.0038 066.9637 0013954 224.7984 135.1525 15.00154166184757
CHUBUSAT 3
1 41339U 16012C   19182.10225462  .00000215  00000-0  99091-5 0  9994
2 41339  31.0106  63.9769 0013722 233.8969 126.0393 15.00329911184770
OUFTI-1
1 41458U 16025C   19182.21410219  .00000093  00000-0  94870-5 0  9992
2 41458  98.1019 269.6929 0165467 315.3801  43.4203 15.05821179174451
E-STAR-2
1 41459U 16025D   19182.29998356  .00000705  00000-0  40711-4 0  9998
2 41459  98.1037 269.4414 0166330 316.3611  42.4556 15.05466984174447
AAUSAT 4
1 41460U 16025E   19182.19362833  .00000688  00000-0  38945-4 0  9990
2 41460  98.0958 270.5982 0156934 309.2922  49.4569 15.07342260174553
NUSAT 1
1 41557U 16033B   19182.49309325  .00000728  00000-0  30028-4 0  9995
2 41557  97.4181 269.9184 0012231 250.1931 109.7990 15.27220905172045
BEESAT 4
1 41619U 16040W   19182.12875276  .00000775  00000-0  35770-4 0  9996
2 41619  97.3668 244.1206 0010825 348.9187  11.1810 15.23137658155753
PRATHAM
1 41783U 16059A   19182.11543173  .00000009  00000-0  11123-4 0  9991
2 41783  98.0665 241.4227 0033164 347.3657  12.6711 14.62996952147365
ALSAT 1N
1 41789U 16059G   19182.23017534  .00000031  00000-0  14998-4 0  9995
2 41789  98.0687 243.5562 0027778 336.9511  23.0448 14.64246661147480
NAYIF 1
1 42017U 17008BX  19182.16021942  .00000874  00000-0  37304-4 0  9996
2 42017  97.4026 249.1259 0007764 118.4852 241.7169 15.25539602131822
MAX VALIER SAT
1 42778U 17036P   19181.69138419 +.00000539 +00000-0 +26560-4 0  9996
2 42778 097.3536 239.0935 0012554 174.1295 186.0091 15.22021038112069
